CW1575 Weather Reports


Display with metric or nautical units.
time (UTC)temp
F
wind
direction
speed
MPH
gust
MPH
rain 1hr
in
rain 24hr
in
rain mn
in
humidity
%
barometer
mb
20161209211002 49 30 0.0 3.0 0.00 0.00 0.00 43 1018.7
20161209210501 49 30 4.0 8.0 0.00 0.00 0.00 43 1018.7
20161209210002 49 5 1.0 3.0 0.00 0.00 0.00 46 1018.5
20161209205506 49 5 2.0 3.0 0.00 0.00 0.00 46 1018.3
20161209205001 49 116 2.0 3.0 0.00 0.00 0.00 45 1018.5
20161209204502 49 266 1.0 3.0 0.00 0.00 0.00 50 1018.5
20161209204002 49 211 2.0 3.0 0.00 0.00 0.00 48 1018.5
20161209203502 49 183 1.0 3.0 0.00 0.00 0.00 46 1018.3
20161209203002 49 243 1.0 2.0 0.00 0.00 0.00 47 1018.3
20161209202502 49 180 1.0 2.0 0.00 0.00 0.00 44 1018.4
20161209202002 49 180 0.0 3.0 0.00 0.00 0.00 48 1018.6
20161209201501 49 212 2.0 3.0 0.00 0.00 0.00 45 1018.6
20161209201001 49 342 0.0 3.0 0.00 0.00 0.00 46 1018.7
20161209200502 49 341 2.0 3.0 0.00 0.00 0.00 46 1018.9
20161209200002 49 207 1.0 3.0 0.00 0.00 0.00 48 1018.6
20161209195502 49 203 1.0 2.0 0.00 0.00 0.00 47 1018.7
20161209195002 49 202 1.0 3.0 0.00 0.00 0.00 46 1018.7
20161209194502 49 203 2.0 5.0 0.00 0.00 0.00 45 1018.7
20161209194002 49 123 1.0 5.0 0.00 0.00 0.00 44 1018.6
20161209193501 49 26 3.0 5.0 0.00 0.00 0.00 45 1018.8
20161209193002 49 53 1.0 3.0 0.00 0.00 0.00 44 1018.7
20161209192501 48 30 3.0 6.0 0.00 0.00 0.00 46 1018.9
20161209192001 48 11 3.0 3.0 0.00 0.00 0.00 49 1018.9
20161209191502 47 35 2.0 3.0 0.00 0.00 0.00 49 1018.8
20161209191002 46 109 2.0 5.0 0.00 0.00 0.00 49 1019.2
20161209190502 45 19 1.0 6.0 0.00 0.00 0.00 50 1019.1
20161209190001 45 25 2.0 5.0 0.00 0.00 0.00 52 1018.9
20161209185501 44 91 1.0 3.0 0.00 0.00 0.00 51 1019.0
20161209185001 44 105 3.0 6.0 0.00 0.00 0.00 51 1019.1
20161209184502 43 103 2.0 3.0 0.00 0.00 0.00 52 1019.2
20161209184002 42 111 4.0 8.0 0.00 0.00 0.00 52 1019.5
20161209183502 42 106 4.0 7.0 0.00 0.00 0.00 55 1019.5
20161209183002 41 115 2.0 3.0 0.00 0.00 0.00 58 1019.5
20161209182502 39 115 1.0 2.0 0.00 0.00 0.00 61 1019.7
20161209182002 38 115 1.0 3.0 0.00 0.00 0.00 61 1019.9
20161209181502 37 128 1.0 3.0 0.00 0.00 0.00 63 1020.2
20161209181002 36 134 2.0 3.0 0.00 0.00 0.00 64 1020.0
20161209180502 35 179 0.0 2.0 0.00 0.00 0.00 67 1020.2
20161209180001 34 193 1.0 2.0 0.00 0.00 0.00 69 1019.9
20161209175501 33 111 0.0 2.0 0.00 0.00 0.00 69 1019.7
20161209175001 32 92 1.0 2.0 0.00 0.00 0.00 70 1019.9
20161209174502 31 92 0.0 2.0 0.00 0.00 0.00 70 1020.1
20161209174002 30 92 2.0 3.0 0.00 0.00 0.00 71 1020.3
20161209173502 30 112 1.0 3.0 0.00 0.00 0.00 72 1020.3
20161209173002 29 107 0.0 3.0 0.00 0.00 0.00 73 1020.0
20161209172501 28 121 1.0 6.0 0.00 0.00 0.00 74 1020.0
20161209172002 27 110 2.0 6.0 0.00 0.00 0.00 75 1020.2
20161209171502 26 171 1.0 3.0 0.00 0.00 0.00 76 1020.0
20161209171002 26 288 1.0 3.0 0.00 0.00 0.00 76 1020.2
20161209170502 25 193 1.0 3.0 0.00 0.00 0.00 77 1020.3
20161209170002 24 123 1.0 3.0 0.00 0.00 0.00 78 1019.8
20161209165502 23 110 3.0 6.0 0.00 0.00 0.00 79 1020.0
20161209165001 22 113 1.0 3.0 0.00 0.00 0.00 79 1020.3
20161209164502 22 232 1.0 5.0 0.00 0.00 0.00 80 1019.9
20161209164002 21 294 3.0 5.0 0.00 0.00 0.00 81 1019.9
20161209163502 20 60 2.0 7.0 0.00 0.00 0.00 83 1020.1
20161209163002 19 156 1.0 3.0 0.00 0.00 0.00 84 1019.9
20161209162501 18 147 2.0 3.0 0.00 0.00 0.00 85 1019.9
20161209162001 17 271 1.0 3.0 0.00 0.00 0.00 86 1019.9
20161209161501 16 127 0.0 6.0 0.00 0.00 0.00 87 1019.6
20161209161002 15 122 1.0 6.0 0.00 0.00 0.00 87 1019.9
20161209160502 15 198 2.0 3.0 0.00 0.00 0.00 88 1019.8
20161209160002 14 316 0.0 3.0 0.00 0.00 0.00 87 1020.1
20161209155502 13 28 1.0 3.0 0.00 0.00 0.00 88 1019.9
20161209155002 13 337 2.0 3.0 0.00 0.00 0.00 87 1019.9
20161209154501 12 188 0.0 0.0 0.00 0.00 0.00 88 1020.0
20161209154001 12 188 0.0 1.0 0.00 0.00 0.00 88 1019.8
20161209153501 11 188 1.0 2.0 0.00 0.00 0.00 88 1019.6
20161209153001 11 206 3.0 6.0 0.00 0.00 0.00 88 1019.2
20161209152501 11 157 2.0 3.0 0.00 0.00 0.00 88 1019.6
20161209152001 10 203 2.0 3.0 0.00 0.00 0.00 88 1019.6
20161209151502 10 169 1.0 5.0 0.00 0.00 0.00 88 1019.7
20161209151002 9 159 3.0 5.0 0.00 0.00 0.00 88 1019.1
20161209150502 9 169 2.0 5.0 0.00 0.00 0.00 88 1019.4
20161209150002 9 201 1.0 3.0 0.00 0.00 0.00 88 1019.4
20161209145501 9 180 1.0 5.0 0.00 0.00 0.00 88 1019.2
20161209145002 8 184 1.0 3.0 0.00 0.00 0.00 88 1019.5
20161209144502 8 229 1.0 3.0 0.00 0.00 0.00 88 1019.2
20161209144002 8 215 1.0 3.0 0.00 0.00 0.00 88 1019.5
20161209143502 8 218 1.0 3.0 0.00 0.00 0.00 88 1019.3
20161209143002 8 215 0.0 0.0 0.00 0.00 0.00 88 1019.3
20161209142501 7 211 0.0 0.0 0.00 0.00 0.00 87 1019.2
20161209142001 7 219 0.0 0.0 0.00 0.00 0.00 87 1019.2
20161209141502 7 219 0.0 0.0 0.00 0.00 0.00 87 1019.2
20161209141001 7 219 1.0 2.0 0.00 0.00 0.00 87 1019.3
20161209140502 7 219 1.0 2.0 0.00 0.00 0.00 88 1019.4
20161209140002 7 226 0.0 3.0 0.00 0.00 0.00 87 1019.5
20161209135502 7 191 2.0 3.0 0.00 0.00 0.00 87 1019.3
20161209135002 7 355 0.0 2.0 0.00 0.00 0.00 87 1019.3
20161209134502 7 355 1.0 2.0 0.00 0.00 0.00 87 1019.4
20161209134002 7 357 1.0 3.0 0.00 0.00 0.00 87 1019.2
20161209133502 7 151 1.0 3.0 0.00 0.00 0.00 87 1019.3
20161209133003 7 279 1.0 7.0 0.00 0.00 0.00 87 1019.0
20161209132501 7 73 2.0 7.0 0.00 0.00 0.00 87 1019.5
20161209132001 7 111 2.0 3.0 0.00 0.00 0.00 87 1019.1
20161209131502 7 257 0.0 3.0 0.00 0.00 0.00 87 1019.1
20161209131002 7 337 0.0 2.0 0.00 0.00 0.00 87 1019.3
20161209130502 7 105 0.0 0.0 0.00 0.00 0.00 87 1019.1
20161209130002 7 36 0.0 0.0 0.00 0.00 0.00 87 1018.6
20161209125502 7 36 0.0 0.0 0.00 0.00 0.00 87 1018.9
20161209125002 7 36 0.0 0.0 0.00 0.00 0.00 87 1018.8
20161209124502 7 36 0.0 0.0 0.00 0.00 0.00 87 1018.7
20161209124002 7 36 0.0 0.0 0.00 0.00 0.00 87 1018.7
20161209123502 7 36 0.0 0.0 0.00 0.00 0.00 87 1018.8
20161209123002 7 36 0.0 0.0 0.00 0.00 0.00 87 1018.9
20161209122503 7 36 0.0 0.0 0.00 0.00 0.00 87 1018.7
20161209122002 7 36 0.0 0.0 0.00 0.00 0.00 87 1018.7
20161209121502 7 36 0.0 0.0 0.00 0.00 0.00 87 1018.8
20161209121001 7 36 0.0 0.0 0.00 0.00 0.00 87 1018.9
20161209120502 7 36 0.0 0.0 0.00 0.00 0.00 87 1018.9
20161209120002 7 36 0.0 0.0 0.00 0.00 0.00 87 1018.9
20161209115502 7 36 0.0 0.0 0.00 0.00 0.00 87 1018.9
20161209115002 7 36 0.0 0.0 0.00 0.00 0.00 87 1018.9
20161209114502 7 36 0.0 0.0 0.00 0.00 0.00 87 1018.9
20161209114002 7 36 0.0 0.0 0.00 0.00 0.00 87 1018.9
20161209113502 7 36 0.0 0.0 0.00 0.00 0.00 87 1019.1
20161209113002 7 36 0.0 0.0 0.00 0.00 0.00 87 1019.1
20161209112502 7 36 0.0 0.0 0.00 0.00 0.00 87 1019.2
20161209112002 7 275 0.0 2.0 0.00 0.00 0.00 87 1019.0
20161209111502 7 146 1.0 3.0 0.00 0.00 0.00 87 1019.1
20161209111002 7 213 0.0 2.0 0.00 0.00 0.00 87 1019.2
20161209110502 7 213 0.0 1.0 0.00 0.00 0.00 87 1019.4
20161209110002 7 213 2.0 3.0 0.00 0.00 0.00 86 1019.4
20161209105502 7 241 0.0 3.0 0.00 0.00 0.00 86 1019.5
20161209105002 7 103 1.0 2.0 0.00 0.00 0.00 86 1019.5
20161209104502 7 102 0.0 0.0 0.00 0.00 0.00 86 1019.9
20161209104002 7 102 0.0 2.0 0.00 0.00 0.00 86 1019.8
20161209103502 7 102 0.0 2.0 0.00 0.00 0.00 86 1019.6
20161209103002 6 102 2.0 3.0 0.00 0.00 0.00 86 1019.8
20161209102503 6 143 1.0 3.0 0.00 0.00 0.00 86 1019.8
20161209102002 6 342 1.0 2.0 0.00 0.00 0.00 86 1019.9
20161209101501 6 342 2.0 3.0 0.00 0.00 0.00 86 1019.8
20161209101001 6 105 1.0 2.0 0.00 0.00 0.00 86 1019.9
20161209100502 6 98 0.0 2.0 0.00 0.00 0.00 86 1019.9
20161209100002 7 98 0.0 0.0 0.00 0.00 0.00 86 1020.0
20161209095502 7 98 0.0 0.0 0.00 0.00 0.00 86 1020.1
20161209095002 7 98 0.0 0.0 0.00 0.00 0.00 86 1020.1
20161209094502 7 98 0.0 0.0 0.00 0.00 0.00 86 1020.3
20161209094002 7 98 0.0 0.0 0.00 0.00 0.00 86 1020.1
20161209093502 7 98 1.0 3.0 0.00 0.00 0.00 86 1020.2
20161209093002 7 32 1.0 3.0 0.00 0.00 0.00 85 1020.5
20161209092502 7 295 2.0 3.0 0.00 0.00 0.00 85 1020.3
20161209092002 7 313 0.0 0.0 0.00 0.00 0.00 85 1020.4
20161209091502 7 313 0.0 2.0 0.00 0.00 0.00 85 1020.4
20161209091002 7 313 0.0 2.0 0.00 0.00 0.00 85 1020.6
20161209090501 7 313 0.0 2.0 0.00 0.00 0.00 85 1020.6
20161209090001 7 313 0.0 1.0 0.00 0.00 0.00 85 1020.7
20161209085501 7 313 0.0 1.0 0.00 0.00 0.00 85 1020.7
20161209085002 7 313 0.0 1.0 0.00 0.00 0.00 85 1020.8
20161209084502 7 313 1.0 2.0 0.00 0.00 0.00 85 1020.7
20161209084002 7 313 1.0 2.0 0.00 0.00 0.00 85 1020.9
20161209083502 7 313 0.0 1.0 0.00 0.00 0.00 85 1020.9
20161209083002 7 313 0.0 1.0 0.00 0.00 0.00 85 1020.9
20161209082502 7 311 1.0 2.0 0.00 0.00 0.00 85 1020.6
20161209082002 7 37 0.0 3.0 0.00 0.00 0.00 85 1020.2
20161209081501 6 37 1.0 3.0 0.00 0.00 0.00 85 1020.2
20161209081001 6 38 1.0 2.0 0.00 0.00 0.00 84 1020.3
20161209080501 6 38 1.0 3.0 0.00 0.00 0.00 84 1020.7
20161209080002 6 38 0.0 1.0 0.00 0.00 0.00 84 1020.5
20161209075501 6 38 0.0 0.0 0.00 0.00 0.00 84 1020.7
20161209075002 7 38 0.0 0.0 0.00 0.00 0.00 84 1020.6
20161209074502 7 38 0.0 0.0 0.00 0.00 0.00 84 1020.5
20161209074002 7 38 0.0 0.0 0.00 0.00 0.00 84 1020.7
20161209073502 7 38 0.0 0.0 0.00 0.00 0.00 84 1020.8
20161209073002 7 38 0.0 0.0 0.00 0.00 0.00 83 1020.8
20161209072502 7 38 0.0 0.0 0.00 0.00 0.00 83 1020.9
20161209072002 7 38 0.0 0.0 0.00 0.00 0.00 83 1020.9
20161209071502 7 38 1.0 1.0 0.00 0.00 0.00 83 1021.0
20161209071002 7 38 0.0 0.0 0.00 0.00 0.00 83 1021.0
20161209070502 7 38 0.0 0.0 0.00 0.00 0.00 83 1021.1
20161209070002 7 38 0.0 0.0 0.00 0.00 0.00 83 1021.1
20161209065501 7 38 0.0 0.0 0.00 0.00 0.00 83 1021.3
20161209065002 7 38 0.0 0.0 0.00 0.00 0.00 83 1021.3
20161209064502 7 38 0.0 0.0 0.00 0.00 0.00 83 1021.7
20161209064002 7 38 0.0 0.0 0.00 0.00 0.00 83 1021.7
20161209063502 7 38 0.0 1.0 0.00 0.00 0.00 83 1022.1
20161209063002 7 38 0.0 3.0 0.00 0.00 0.00 83 1022.1
20161209062501 7 38 0.0 1.0 0.00 0.00 0.00 83 1022.1
20161209062001 7 38 0.0 1.0 0.00 0.00 0.00 82 1022.1
20161209061501 7 38 0.0 1.0 0.00 0.00 0.00 82 1021.8
20161209061001 7 38 0.0 0.0 0.00 0.00 0.00 82 1022.1
20161209060502 7 38 1.0 2.0 0.00 0.00 0.00 82 1022.1
20161209060001 7 38 0.0 3.0 0.00 0.00 0.00 82 1022.5
20161209055502 8 38 0.0 0.0 0.00 0.00 0.00 82 1022.6
20161209055002 8 38 0.0 0.0 0.00 0.00 0.00 82 1022.3
20161209054502 8 38 1.0 2.0 0.00 0.00 0.00 81 1022.5
20161209054002 8 38 1.0 2.0 0.00 0.00 0.00 81 1022.5
20161209053502 8 38 1.0 2.0 0.00 0.00 0.00 81 1022.6
20161209053002 8 38 0.0 0.0 0.00 0.00 0.00 81 1022.8
20161209052502 8 38 0.0 0.0 0.00 0.00 0.00 81 1023.0
20161209052002 8 38 0.0 0.0 0.00 0.00 0.00 81 1023.0
20161209051502 8 38 0.0 0.0 0.00 0.00 0.00 81 1023.0
20161209051002 8 38 0.0 0.0 0.00 0.00 0.00 81 1023.1
20161209050502 8 38 0.0 0.0 0.00 0.00 0.00 81 1023.2
20161209050001 8 38 0.0 1.0 0.00 0.00 0.00 81 1023.3
20161209045501 8 38 1.0 2.0 0.00 0.00 0.00 81 1023.1
20161209045002 8 38 1.0 2.0 0.00 0.00 0.00 80 1023.4
20161209044502 8 38 0.0 1.0 0.00 0.00 0.00 80 1023.4
20161209044002 8 38 0.0 0.0 0.00 0.00 0.00 80 1023.6
20161209043502 9 38 0.0 0.0 0.00 0.00 0.00 80 1023.6
20161209043002 9 38 0.0 1.0 0.00 0.00 0.00 80 1023.7
20161209042502 9 38 0.0 1.0 0.00 0.00 0.00 80 1023.7
20161209042002 9 38 0.0 0.0 0.00 0.00 0.00 80 1023.9
20161209041501 9 38 0.0 0.0 0.00 0.00 0.00 80 1023.8
20161209041002 9 38 0.0 0.0 0.00 0.00 0.00 80 1023.8
20161209040502 9 38 0.0 3.0 0.00 0.00 0.00 80 1023.8
20161209040002 9 38 1.0 3.0 0.00 0.00 0.00 80 1023.8
20161209035502 9 38 1.0 3.0 0.00 0.00 0.00 80 1024.0
20161209035002 9 38 2.0 3.0 0.00 0.00 0.00 80 1023.8
20161209034502 9 38 1.0 3.0 0.00 0.00 0.00 80 1024.1
20161209034002 9 40 1.0 3.0 0.00 0.00 0.00 80 1024.1
20161209033501 9 56 1.0 3.0 0.00 0.00 0.00 80 1024.0
20161209033002 9 56 0.0 2.0 0.00 0.00 0.00 80 1024.2
20161209032502 9 56 0.0 2.0 0.00 0.00 0.00 79 1024.2
20161209032002 9 56 0.0 3.0 0.00 0.00 0.00 79 1024.1
20161209031502 9 58 1.0 3.0 0.00 0.00 0.00 79 1024.0
20161209031002 9 59 1.0 2.0 0.00 0.00 0.00 79 1024.3
20161209030502 9 323 0.0 1.0 0.00 0.00 0.00 79 1024.6
20161209030002 9 323 0.0 2.0 0.00 0.00 0.00 78 1024.6
20161209025502 9 323 1.0 3.0 0.00 0.00 0.00 78 1024.8
20161209025002 9 15 2.0 3.0 0.00 0.00 0.00 78 1024.7
20161209024501 9 17 0.0 2.0 0.00 0.00 0.00 78 1024.9
20161209024002 9 17 0.0 3.0 0.00 0.00 0.00 78 1025.0
20161209023502 9 17 2.0 3.0 0.00 0.00 0.00 78 1025.0
20161209023002 9 13 1.0 3.0 0.00 0.00 0.00 78 1025.0
20161209022502 9 17 3.0 3.0 0.00 0.00 0.00 78 1025.1
20161209022002 10 13 1.0 3.0 0.00 0.00 0.00 77 1025.1
20161209021502 11 13 2.0 2.0 0.00 0.00 0.00 76 1025.1
20161209012003 11 11 3.0 5.0 0.00 0.00 0.00 76 1025.7
20161209011504 11 20 3.0 8.0 0.00 0.00 0.00 76 1025.6
20161209011004 11 11 3.0 5.0 0.00 0.00 0.00 76 1025.6
20161209010503 11 17 5.0 8.0 0.00 0.00 0.00 76 1025.6
20161209010004 11 21 2.0 3.0 0.00 0.00 0.00 75 1025.7
20161209005503 12 27 1.0 3.0 0.00 0.00 0.00 75 1025.7
20161209005003 12 26 2.0 3.0 0.00 0.00 0.00 75 1025.7
20161209004503 12 24 2.0 3.0 0.00 0.00 0.00 75 1025.6
20161209004003 12 15 3.0 5.0 0.00 0.00 0.00 74 1025.6
20161209003503 12 22 1.0 2.0 0.00 0.00 0.00 74 1025.6
20161209003003 12 22 1.0 3.0 0.00 0.00 0.00 74 1025.7
20161209002503 12 20 1.0 3.0 0.00 0.00 0.00 74 1025.7
20161209002003 12 18 2.0 3.0 0.00 0.00 0.00 74 1025.8
20161209001503 13 18 1.0 3.0 0.00 0.00 0.00 73 1025.8
20161209001003 13 10 1.0 3.0 0.00 0.00 0.00 73 1025.8
20161209000503 13 5 1.0 2.0 0.00 0.00 0.00 73 1025.8
20161209000004 13 5 1.0 2.0 0.00 0.00 0.00 72 1025.8
20161208235503 13 9 1.0 3.0 0.00 0.00 0.00 72 1025.7
20161208235003 13 5 1.0 3.0 0.00 0.00 0.00 71 1025.7
20161208234503 14 9 2.0 3.0 0.00 0.00 0.00 71 1025.8
20161208234004 14 5 1.0 2.0 0.00 0.00 0.00 71 1025.8
20161208233503 14 5 1.0 2.0 0.00 0.00 0.00 70 1025.8
20161208233003 14 5 1.0 3.0 0.00 0.00 0.00 70 1026.0
20161208232503 14 16 3.0 5.0 0.00 0.00 0.00 70 1026.0
20161208232003 15 346 2.0 3.0 0.00 0.00 0.00 69 1026.1
20161208231504 15 350 2.0 3.0 0.00 0.00 0.00 69 1026.1
20161208231004 15 27 3.0 6.0 0.00 0.00 0.00 68 1026.1
20161208230503 15 337 3.0 7.0 0.00 0.00 0.00 68 1026.0
20161208230003 16 8 3.0 7.0 0.00 0.00 0.00 67 1026.1
20161208225503 16 13 3.0 7.0 0.00 0.00 0.00 67 1026.0
20161208225003 16 342 3.0 7.0 0.00 0.00 0.00 66 1026.1
20161208224503 17 342 3.0 3.0 0.00 0.00 0.00 66 1026.1
20161208224003 17 348 2.0 3.0 0.00 0.00 0.00 67 1026.1
20161208223503 17 320 3.0 8.0 0.00 0.00 0.00 67 1026.2
20161208223003 17 336 5.0 9.0 0.00 0.00 0.00 67 1026.3
20161208222503 18 9 5.0 9.0 0.00 0.00 0.00 67 1026.4
20161208222004 18 16 4.0 8.0 0.00 0.00 0.00 67 1026.4
20161208221504 17 349 3.0 5.0 0.00 0.00 0.00 67 1026.4
20161208221003 18 22 2.0 5.0 0.00 0.00 0.00 66 1026.5
20161208220503 18 16 3.0 6.0 0.00 0.00 0.00 65 1026.5
20161208220003 18 13 3.0 7.0 0.00 0.00 0.00 64 1026.1
20161208215503 19 17 3.0 8.0 0.00 0.00 0.00 63 1025.9
20161208215003 19 4 3.0 7.0 0.00 0.00 0.00 62 1025.7
20161208214503 19 27 2.0 8.0 0.00 0.00 0.00 61 1025.6
20161208214003 20 41 3.0 8.0 0.00 0.00 0.00 59 1025.9
20161208213503 21 18 3.0 8.0 0.00 0.00 0.00 59 1025.8
20161208213003 21 15 2.0 5.0 0.00 0.00 0.00 57 1025.9
20161208212503 22 20 5.0 9.0 0.00 0.00 0.00 57 1025.8
20161208212003 22 5 2.0 3.0 0.00 0.00 0.00 55 1025.7
20161208211503 23 25 1.0 3.0 0.00 0.00 0.00 54 1025.8